| time (UTC) | temp F | wind direction | speed MPH | gust MPH | rain 1hr in | rain 24hr in | rain mn in | humidity % | barometer mb |
| 20260506233017 | 65 | 45 | 3.0 | 8.0 | 0.00 | 0.04 | 0.04 | 72 | 1012.4 |
| 20260506232017 | 66 | 45 | 2.0 | 7.0 | 0.00 | 0.04 | 0.04 | 71 | 1012.3 |
| 20260506231017 | 66 | 23 | 4.0 | 7.0 | 0.00 | 0.04 | 0.04 | 70 | 1012.3 |
| 20260506230017 | 67 | 45 | 4.0 | 7.0 | 0.00 | 0.04 | 0.04 | 69 | 1012.4 |
| 20260506225017 | 67 | 68 | 3.0 | 6.0 | 0.00 | 0.04 | 0.04 | 69 | 1012.2 |
| 20260506224017 | 67 | 45 | 4.0 | 10.0 | 0.00 | 0.04 | 0.04 | 68 | 1012.1 |
| 20260506223017 | 67 | 45 | 5.0 | 9.0 | 0.00 | 0.04 | 0.04 | 68 | 1012.0 |
| 20260506222017 | 67 | 23 | 4.0 | 9.0 | 0.00 | 0.04 | 0.04 | 70 | 1012.0 |
| 20260506221017 | 67 | 45 | 4.0 | 8.0 | 0.00 | 0.04 | 0.04 | 70 | 1011.9 |
| 20260506220017 | 67 | 90 | 2.0 | 5.0 | 0.00 | 0.04 | 0.04 | 70 | 1012.3 |
| 20260506215017 | 66 | 23 | 2.0 | 6.0 | 0.00 | 0.04 | 0.04 | 71 | 1012.1 |
| 20260506214017 | 65 | 45 | 3.0 | 10.0 | 0.00 | 0.04 | 0.04 | 71 | 1012.1 |
| 20260506213017 | 64 | 23 | 2.0 | 6.0 | 0.00 | 0.04 | 0.04 | 74 | 1011.9 |
| 20260506212017 | 63 | 45 | 2.0 | 8.0 | 0.00 | 0.04 | 0.04 | 73 | 1012.2 |
| 20260506211017 | 63 | 45 | 1.0 | 4.0 | 0.00 | 0.04 | 0.04 | 74 | 1012.6 |
| 20260506210057 | 63 | 45 | 3.0 | 6.0 | 0.00 | 0.04 | 0.04 | 72 | 1012.3 |
| 20260506205017 | 63 | 45 | 2.0 | 4.0 | 0.00 | 0.04 | 0.04 | 74 | 1012.1 |
| 20260506204057 | 63 | 45 | 3.0 | 7.0 | 0.00 | 0.04 | 0.04 | 71 | 1012.3 |
| 20260506203037 | 64 | 90 | 2.0 | 4.0 | 0.00 | 0.04 | 0.04 | 72 | 1012.7 |
| 20260506202017 | 63 | 0 | 3.0 | 5.0 | 0.00 | 0.04 | 0.04 | 72 | 1012.8 |
| 20260506201017 | 63 | 45 | 2.0 | 5.0 | 0.00 | 0.04 | 0.04 | 72 | 1013.1 |
| 20260506200017 | 63 | 315 | 2.0 | 6.0 | 0.00 | 0.04 | 0.04 | 70 | 1013.0 |
| 20260506195017 | 62 | 68 | 2.0 | 6.0 | 0.00 | 0.04 | 0.04 | 75 | 1013.3 |
| 20260506194037 | 61 | 68 | 2.0 | 5.0 | 0.00 | 0.04 | 0.04 | 73 | 1013.6 |
| 20260506193017 | 61 | 45 | 2.0 | 6.0 | 0.00 | 0.04 | 0.04 | 75 | 1013.4 |
| 20260506192017 | 60 | 45 | 3.0 | 6.0 | 0.00 | 0.04 | 0.04 | 75 | 1013.6 |
| 20260506191037 | 60 | 45 | 3.0 | 9.0 | 0.00 | 0.04 | 0.04 | 74 | 1013.6 |
| 20260506190018 | 60 | 338 | 4.0 | 10.0 | 0.00 | 0.04 | 0.04 | 75 | 1013.7 |
| 20260506185037 | 60 | 45 | 4.0 | 10.0 | 0.00 | 0.04 | 0.04 | 74 | 1013.5 |
| 20260506184137 | 60 | 23 | 3.0 | 10.0 | 0.00 | 0.04 | 0.04 | 78 | 1012.6 |
| 20260506183017 | 59 | 45 | 4.0 | 11.0 | 0.00 | 0.04 | 0.04 | 77 | 1012.7 |
| 20260506182017 | 58 | 315 | 3.0 | 8.0 | 0.00 | 0.04 | 0.04 | 79 | 1012.3 |
| 20260506181017 | 58 | 45 | 5.0 | 11.0 | 0.00 | 0.04 | 0.04 | 79 | 1012.7 |
| 20260506180017 | 57 | 45 | 3.0 | 8.0 | 0.00 | 0.04 | 0.04 | 81 | 1012.9 |
| 20260506175017 | 56 | 45 | 4.0 | 9.0 | 0.00 | 0.04 | 0.04 | 82 | 1012.9 |
| 20260506174017 | 55 | 23 | 4.0 | 11.0 | 0.00 | 0.04 | 0.04 | 84 | 1012.7 |
| 20260506173017 | 55 | 45 | 3.0 | 7.0 | 0.00 | 0.04 | 0.04 | 84 | 1013.0 |
| 20260506172017 | 54 | 23 | 3.0 | 10.0 | 0.00 | 0.04 | 0.04 | 85 | 1012.6 |
| 20260506171514 | 54 | 45 | 5.0 | 9.0 | 0.00 | 0.04 | 0.04 | 85 | 1012.6 |
| 20260506171017 | 54 | 45 | 4.0 | 10.0 | 0.00 | 0.04 | 0.04 | 86 | 1012.8 |
| 20260506170017 | 54 | 45 | 4.0 | 9.0 | 0.00 | 0.04 | 0.04 | 86 | 1013.1 |
| 20260506165017 | 54 | 45 | 3.0 | 9.0 | 0.00 | 0.04 | 0.04 | 87 | 1013.2 |
| 20260506164017 | 54 | 45 | 3.0 | 5.0 | 0.00 | 0.04 | 0.04 | 87 | 1013.6 |
| 20260506163017 | 54 | 45 | 2.0 | 5.0 | 0.00 | 0.04 | 0.04 | 87 | 1013.4 |
| 20260506162037 | 54 | 45 | 3.0 | 8.0 | 0.02 | 0.04 | 0.04 | 88 | 1013.1 |
| 20260506161017 | 54 | 315 | 4.0 | 9.0 | 0.03 | 0.04 | 0.04 | 88 | 1012.3 |
| 20260506160017 | 54 | 315 | 4.0 | 11.0 | 0.04 | 0.04 | 0.04 | 88 | 1012.8 |
| 20260506155017 | 54 | 338 | 2.0 | 5.0 | 0.04 | 0.04 | 0.04 | 89 | 1013.1 |
| 20260506154017 | 53 | 23 | 2.0 | 5.0 | 0.04 | 0.04 | 0.04 | 89 | 1013.0 |
| 20260506153017 | 53 | 23 | 1.0 | 4.0 | 0.04 | 0.04 | 0.04 | 89 | 1012.9 |
| 20260506152017 | 53 | 315 | 2.0 | 5.0 | 0.02 | 0.02 | 0.02 | 87 | 1013.4 |
| 20260506151017 | 53 | 0.0 | 2.0 | 0.01 | 0.01 | 0.01 | 86 | 1015.0 | |
| 20260506150017 | 53 | 0 | 2.0 | 5.0 | 0.00 | 0.00 | 0.00 | 86 | 1014.7 |
| 20260506145017 | 53 | 0 | 1.0 | 4.0 | 0.00 | 0.00 | 0.00 | 85 | 1014.4 |
| 20260506144017 | 53 | 23 | 2.0 | 8.0 | 0.00 | 0.00 | 0.00 | 85 | 1013.3 |
| 20260506143037 | 53 | 23 | 3.0 | 9.0 | 0.00 | 0.00 | 0.00 | 83 | 1012.9 |
| 20260506142017 | 53 | 45 | 3.0 | 8.0 | 0.00 | 0.00 | 0.00 | 82 | 1013.4 |
| 20260506141017 | 53 | 315 | 3.0 | 8.0 | 0.00 | 0.00 | 0.00 | 83 | 1013.7 |
| 20260506140017 | 53 | 0 | 3.0 | 6.0 | 0.00 | 0.00 | 0.00 | 83 | 1013.4 |
| 20260506135017 | 53 | 45 | 3.0 | 8.0 | 0.00 | 0.00 | 0.00 | 83 | 1013.2 |
| 20260506134117 | 53 | 45 | 5.0 | 7.0 | 0.00 | 0.00 | 0.00 | 83 | 1012.5 |
| 20260506133017 | 53 | 45 | 4.0 | 10.0 | 0.00 | 0.00 | 0.00 | 83 | 1012.0 |
| 20260506132037 | 53 | 45 | 3.0 | 7.0 | 0.00 | 0.00 | 0.00 | 83 | 1012.5 |
| 20260506131017 | 52 | 338 | 4.0 | 12.0 | 0.00 | 0.00 | 0.00 | 83 | 1012.1 |
| 20260506130017 | 52 | 45 | 4.0 | 12.0 | 0.00 | 0.00 | 0.00 | 83 | 1012.1 |
| 20260506125017 | 52 | 338 | 4.0 | 11.0 | 0.00 | 0.00 | 0.00 | 83 | 1011.8 |
| 20260506124017 | 52 | 45 | 5.0 | 13.0 | 0.00 | 0.00 | 0.00 | 82 | 1011.8 |
| 20260506123017 | 53 | 45 | 5.0 | 14.0 | 0.00 | 0.00 | 0.00 | 82 | 1011.7 |
| 20260506122017 | 53 | 23 | 3.0 | 8.0 | 0.00 | 0.00 | 0.00 | 82 | 1011.8 |
| 20260506121057 | 53 | 23 | 4.0 | 7.0 | 0.00 | 0.00 | 0.00 | 81 | 1011.6 |
| 20260506120017 | 54 | 338 | 3.0 | 9.0 | 0.00 | 0.00 | 0.00 | 80 | 1011.6 |
| 20260506115017 | 54 | 338 | 3.0 | 9.0 | 0.00 | 0.00 | 0.00 | 79 | 1011.6 |
| 20260506114017 | 54 | 45 | 3.0 | 10.0 | 0.00 | 0.00 | 0.00 | 78 | 1011.4 |
| 20260506113017 | 55 | 338 | 4.0 | 10.0 | 0.00 | 0.00 | 0.00 | 77 | 1011.2 |
| 20260506112017 | 55 | 315 | 5.0 | 12.0 | 0.00 | 0.00 | 0.00 | 76 | 1010.9 |
| 20260506111017 | 55 | 23 | 4.0 | 11.0 | 0.00 | 0.00 | 0.00 | 76 | 1010.8 |
| 20260506110017 | 55 | 315 | 4.0 | 12.0 | 0.00 | 0.00 | 0.00 | 76 | 1010.8 |
| 20260506105017 | 56 | 23 | 4.0 | 9.0 | 0.00 | 0.00 | 0.00 | 75 | 1010.7 |
| 20260506104037 | 56 | 23 | 4.0 | 9.0 | 0.00 | 0.00 | 0.00 | 76 | 1010.5 |
| 20260506103017 | 56 | 338 | 3.0 | 8.0 | 0.00 | 0.00 | 0.00 | 76 | 1010.5 |
| 20260506102017 | 56 | 45 | 2.0 | 5.0 | 0.00 | 0.00 | 0.00 | 76 | 1010.4 |
| 20260506101017 | 56 | 23 | 3.0 | 5.0 | 0.00 | 0.00 | 0.00 | 76 | 1009.9 |
| 20260506100017 | 57 | 315 | 3.0 | 6.0 | 0.00 | 0.00 | 0.00 | 76 | 1009.9 |
| 20260506095509 | 57 | 45 | 2.0 | 3.0 | 0.00 | 0.00 | 0.00 | 76 | 1009.7 |
| 20260506094537 | 57 | 23 | 3.0 | 9.0 | 0.00 | 0.00 | 0.00 | 76 | 1009.8 |
| 20260506093517 | 57 | 23 | 3.0 | 8.0 | 0.00 | 0.00 | 0.00 | 76 | 1009.8 |
| 20260506092517 | 57 | 45 | 3.0 | 7.0 | 0.00 | 0.00 | 0.00 | 76 | 1009.5 |
| 20260506091517 | 57 | 45 | 2.0 | 8.0 | 0.00 | 0.00 | 0.00 | 76 | 1009.4 |
| 20260506090537 | 57 | 0 | 2.0 | 5.0 | 0.00 | 0.00 | 0.00 | 76 | 1009.5 |
| 20260506085517 | 58 | 0 | 3.0 | 6.0 | 0.00 | 0.00 | 0.00 | 77 | 1009.4 |
| 20260506084537 | 58 | 68 | 3.0 | 7.0 | 0.00 | 0.00 | 0.00 | 76 | 1009.3 |
| 20260506083517 | 58 | 23 | 4.0 | 10.0 | 0.00 | 0.00 | 0.00 | 76 | 1009.3 |
| 20260506082517 | 58 | 338 | 4.0 | 8.0 | 0.00 | 0.00 | 0.00 | 77 | 1009.1 |
| 20260506081517 | 58 | 338 | 2.0 | 6.0 | 0.00 | 0.00 | 0.00 | 77 | 1009.1 |
| 20260506080517 | 58 | 338 | 3.0 | 10.0 | 0.00 | 0.00 | 0.00 | 77 | 1009.2 |
| 20260506073017 | 59 | 45 | 2.0 | 4.0 | 0.00 | 0.00 | 0.00 | 78 | 1008.5 |
| 20260506072057 | 59 | 45 | 3.0 | 9.0 | 0.00 | 0.00 | 0.00 | 78 | 1008.5 |
| 20260506071037 | 59 | 45 | 3.0 | 6.0 | 0.00 | 0.00 | 0.00 | 78 | 1008.7 |
| 20260506062017 | 60 | 45 | 2.0 | 6.0 | 0.00 | 0.00 | 0.00 | 78 | 1008.7 |
| 20260506061017 | 60 | 23 | 3.0 | 8.0 | 0.00 | 0.00 | 0.00 | 78 | 1008.7 |
| 20260506051036 | 61 | 338 | 3.0 | 9.0 | 0.00 | 0.00 | 0.00 | 79 | 1008.8 |
| 20260506045038 | 61 | 0 | 3.0 | 9.0 | 0.00 | 0.00 | 0.00 | 79 | 1008.6 |
| 20260506044017 | 62 | 45 | 4.0 | 11.0 | 0.00 | 0.00 | 0.00 | 79 | 1008.3 |
| 20260506042958 | 62 | 23 | 3.0 | 8.0 | 0.00 | 0.00 | 0.00 | 78 | 1008.4 |
| 20260506042017 | 63 | 68 | 3.0 | 11.0 | 0.00 | 0.00 | 0.00 | 78 | 1008.5 |
| 20260506041017 | 63 | 23 | 3.0 | 10.0 | 0.00 | 0.00 | 0.00 | 78 | 1008.4 |
| 20260506040037 | 63 | 45 | 4.0 | 11.0 | 0.00 | 0.00 | 0.00 | 78 | 1008.4 |
| 20260506035017 | 64 | 45 | 4.0 | 11.0 | 0.00 | 0.00 | 0.00 | 78 | 1007.9 |
| 20260506034017 | 64 | 315 | 3.0 | 8.0 | 0.00 | 0.00 | 0.00 | 78 | 1007.8 |
| 20260506033057 | 64 | 23 | 4.0 | 8.0 | 0.00 | 0.00 | 0.00 | 77 | 1007.4 |
| 20260506032017 | 65 | 23 | 5.0 | 11.0 | 0.00 | 0.00 | 0.00 | 76 | 1007.3 |
| 20260506031017 | 65 | 315 | 4.0 | 6.0 | 0.00 | 0.00 | 0.00 | 76 | 1007.3 |
| 20260506030017 | 66 | 0 | 3.0 | 9.0 | 0.00 | 0.00 | 0.00 | 75 | 1007.1 |
| 20260506025017 | 67 | 338 | 3.0 | 8.0 | 0.00 | 0.00 | 0.00 | 75 | 1007.0 |
| 20260506024017 | 68 | 338 | 4.0 | 11.0 | 0.00 | 0.00 | 0.00 | 75 | 1006.8 |
| 20260506023017 | 68 | 0 | 3.0 | 7.0 | 0.00 | 0.00 | 0.00 | 75 | 1006.6 |
| 20260506022017 | 68 | 338 | 3.0 | 5.0 | 0.00 | 0.00 | 0.00 | 75 | 1006.3 |
| 20260506021017 | 68 | 338 | 3.0 | 7.0 | 0.00 | 0.00 | 0.00 | 74 | 1006.0 |
| 20260506020017 | 68 | 338 | 3.0 | 9.0 | 0.00 | 0.00 | 0.00 | 74 | 1006.0 |
| 20260506015017 | 69 | 23 | 2.0 | 6.0 | 0.00 | 0.00 | 0.00 | 73 | 1005.5 |
| 20260506014017 | 69 | 45 | 3.0 | 8.0 | 0.00 | 0.00 | 0.00 | 73 | 1005.1 |
| 20260506013017 | 69 | 45 | 3.0 | 9.0 | 0.00 | 0.00 | 0.00 | 73 | 1005.4 |
| 20260506012017 | 70 | 45 | 3.0 | 10.0 | 0.00 | 0.00 | 0.00 | 73 | 1004.6 |
| 20260506011017 | 71 | 338 | 3.0 | 6.0 | 0.00 | 0.00 | 0.00 | 72 | 1004.9 |
| 20260506010017 | 71 | 315 | 4.0 | 12.0 | 0.00 | 0.00 | 0.00 | 71 | 1004.5 |
| 20260506005017 | 72 | 315 | 2.0 | 8.0 | 0.00 | 0.00 | 0.00 | 70 | 1004.4 |
| 20260506004017 | 72 | 23 | 3.0 | 8.0 | 0.00 | 0.00 | 0.00 | 69 | 1004.4 |
| 20260506003017 | 73 | 45 | 4.0 | 9.0 | 0.00 | 0.00 | 0.00 | 70 | 1003.8 |
| 20260506002517 | 74 | 338 | 3.0 | 7.0 | 0.00 | 0.00 | 0.00 | 69 | 1003.9 |
| 20260506001517 | 75 | 23 | 3.0 | 9.0 | 0.00 | 0.00 | 0.00 | 69 | 1003.7 |
| 20260506000537 | 76 | 23 | 4.0 | 11.0 | 0.00 | 0.00 | 0.00 | 68 | 1003.7 |
| 20260505235517 | 77 | 338 | 3.0 | 12.0 | 0.00 | 0.00 | 0.00 | 67 | 1003.7 |
| 20260505234517 | 78 | 315 | 3.0 | 8.0 | 0.00 | 0.00 | 0.00 | 66 | 1003.6 |
| 20260505233537 | 79 | 338 | 2.0 | 7.0 | 0.00 | 0.00 | 0.00 | 65 | 1003.5 |